Regional Weather Roundup
Issued by NWS

Home | Current Version | Previous Version | Text Only | Print | Product List | Glossary Off
Versions: 1 2 3 4 5 6 7 8 9 10 11 12 13 14 15 16 17 18 19 20 21 22 23 24 25 26 27 28 29 30 31 32 33 34 35 36 37 38 39 40 41 42 43 44 45 46 47 48 49 50

000
ASUS43 KLOT 302006
RWRIL

ILLINOIS REGIONAL WEATHER ROUNDUP
NATIONAL WEATHER SERVICE CHICAGO/ROMEOVILLE IL
300 PM CDT WED JUL 30 2014

NOTE: "FAIR" INDICATES FEW OR NO CLOUDS BELOW 12,000 FEET WITH NO
SIGNIFICANT WEATHER AND/OR OBSTRUCTIONS TO VISIBILITY.

* THESE STATIONS ARE NOT UNDER NWS QUALITY CONTROL. THEY ALSO MAY NOT
  REPORT WEATHER SUCH AS PRECIPITATION OR FOG.

ILZ001-002-007-009-015-016-024-302100-
NORTHWEST ILLINOIS

CITY           SKY/WX    TMP DP  RH WIND       PRES   REMARKS
MOLINE         MOSUNNY   82  57  42 W12       30.05S HX  82
STERLING*      MOSUNNY   81  61  50 NW10G16   30.05S HX  81
SAVANNA*       SUNNY     80  55  41 NW9       30.04S HX  80
$$

ILZ003-004-008-010-011-017-018-302100-
NORTH CENTRAL ILLINOIS

CITY           SKY/WX    TMP DP  RH WIND       PRES   REMARKS
ROCKFORD       MOSUNNY   79  57  46 W13       30.04F HX  80
FREEPORT*      MOSUNNY   78  61  56 NW8       30.07S
ROCHELLE*      SUNNY     78  56  45 W10       30.05S
DE KALB*       PTSUNNY   73  56  55 W8        30.05S
PERU*          PTSUNNY   80  59  49 NW9G16    30.05S HX  80
$$

ILZ005-006-012>014-019>023-302100-
NORTHEAST ILLINOIS

CITY           SKY/WX    TMP DP  RH WIND       PRES   REMARKS
CHICAGO-OHARE  PTSUNNY   76  57  51 NE8       30.02R
CHICAGO-MIDWAY PTSUNNY   75  61  61 E12       30.02R
AURORA         PTSUNNY   77  58  51 NW8       30.04S
LANSING*       PTSUNNY   80  52  38 W9        30.01F HX  80
JOLIET*        MOSUNNY   79  55  43 W8        30.04S
WAUKEGAN       MOSUNNY   68  58  70 E9        30.03S
DUPAGE AIRPORT MOSUNNY   80  57  45 W13       30.02F HX  80
KANKAKEE*      PTSUNNY   78  62  56 W13       30.04S HX  80
WHEELING       PTSUNNY   71  59  65 NE8       30.04R
MORRIS*        MOSUNNY   78  60  53 W5        30.03F HX  80
ROMEOVILLE*    CLOUDY    78  56  46 NW7G16    30.03S
NORTHERLY ISL    N/A     67  60  78 NE9         N/A
$$

LMZ740>746-302100-
SOUTHERN LAKE MICHIGAN

STATION/POSITION SKY/WX   TEMP    WIND        PRES    VSBY  WAVE
                          AIR SEA DIR/SP/G                  HT/PER
                          (F)     (DEG/KT/KT) (MB)    (MI)  (FT/S)
SOUTHERN BUOY              58 61  340/  8/ 10 1017.4F         1
WAUKEGAN HARBOR            63      50/ 10/ 11   N/A
HARRISON CRIB              63      40/ 11/ 13   N/A
BURNHAM HARBOR             66      30/  9/ 10   N/A
CALUMET HARBOR             67      20/  8/ 11 1015.8S
MICHIGAN CITY              65      20/ 10/ 11   N/A
MICHIGAN CITY 6N           65 70   40/ 10/ 12   N/A           1/ 3
ST. JOSEPH                 63 69  350/  6/ 10   N/A           1/ 3
$$

ILZ025>027-034>036-040-047-049-050-058-095>099-302100-
WEST-CENTRAL ILLINOIS

CITY           SKY/WX    TMP DP  RH WIND       PRES   REMARKS
QUINCY         SUNNY     80  55  42 N7        30.08F HX  80
GALESBURG*     SUNNY     82  60  46 NW8       30.08R HX  82
MACOMB*        MOSUNNY   78  59  52 NW7       30.10S
JACKSONVILLE*  MOSUNNY   80  59  48 W6        30.08F HX  81
PITTSFIELD*    MOSUNNY   81  54  39 NW3       30.09S HX  80
$$

ILZ028>032-037-038-041>044-048-051>054-059>061-302100-
CENTRAL ILLINOIS

CITY           SKY/WX    TMP DP  RH WIND       PRES   REMARKS
PONTIAC        SUNNY     81  61  50 W9        30.04S HX  81
DECATUR        PTSUNNY   81  58  45 NW7       30.07S HX  81
PEORIA         MOSUNNY   83  54  36 W10       30.06S HX  82
LACON*         MOSUNNY   80  58  46 NW7       30.04S HX  80
LINCOLN*       MOSUNNY   82  57  42 NW6       30.03F HX  82
SPRINGFIELD    MOSUNNY   81  60  48 NW7       30.07F HX  82
TAYLORVILLE    PTSUNNY   79  59  50 W7        30.07S HX  80
$$

ILZ033-039-045-046-055>057-062-063-302100-
EAST-CENTRAL ILLINOIS

CITY           SKY/WX    TMP DP  RH WIND       PRES   REMARKS
CHAMPAIGN      MOSUNNY   79  32  18 W13       30.06F
DANVILLE*      PTSUNNY   78  61  55 NW14      30.02S
RANTOUL*       MOSUNNY   79  58  48 NW8       30.06S HX  80
MATTOON        MOSUNNY   79  57  46 NW8       30.06S HX  80
PARIS*         MOSUNNY   78  62  56 W8        30.06S HX  80
$$

ILZ079-100>102-302100-
SOUTHWEST ILLINOIS

CITY           SKY/WX    TMP DP  RH WIND       PRES   REMARKS
ALTON          MOSUNNY   81  57  44 NW6       30.07F HX  81
BELLEVILLE     PTSUNNY   82  56  41 CALM      30.06F HX  82
CAHOKIA*       PTSUNNY   83  54  36 VRB5      30.07S HX  82
SPARTA*        PTSUNNY   77  61  57 S6        30.09S
$$

ILZ064>066-069>071-074>076-080>082-084>086-088>090-092>094-302100-
SOUTH-CENTRAL ILLINOIS

CITY           SKY/WX    TMP DP  RH WIND       PRES   REMARKS
CARBONDALE     CLOUDY    77  59  53 S10       30.09F
CAIRO*         CLOUDY    79  58  49 CALM      30.10F HX  80
EFFINGHAM*     MOSUNNY   80  53  39 W3        30.07S HX  80
MARION         PTSUNNY   79  61  53 SW6       30.10F HX  80
MT. VERNON     MOSUNNY   81  57  44 W6        30.08F HX  81
CENTRALIA*     MOSUNNY   90  50  25 W3        30.07F HX  87
SALEM*         MOSUNNY  N/A N/A N/A W7        30.08S
METROPOLIS*    CLOUDY    78  51  39 CALM      30.09F
$$

ILZ067-068-072-073-078-083-087-091-302100-
SOUTHEAST ILLINOIS

CITY           SKY/WX    TMP DP  RH WIND       PRES   REMARKS
LAWRENCEVILLE  SUNNY     80  60  50 W8        30.07F HX  81
FLORA*         SUNNY     81  52  36 W6        30.07S HX  80
FAIRFIELD*     MOSUNNY   82  57  42 SW6       30.07S HX  82
HARRISBURG*    PTSUNNY   78  59  52 SW8       30.10S
ROBINSON*      SUNNY     80  63  55 W9        30.07F HX  82
CARMI*         MOSUNNY   82  64  54 SW9       30.07S HX  84
$$

ABBREVIATIONS USED IN REMARKS
   TC - TEMPERATURE IN CELSIUS
  WCI - WIND CHILL INDEX
   HX - HEAT INDEX
  VSB - VISIBILITY
$$




USA.gov is the U.S. government's official web portal to all federal, state and local government web resources and services.